Tracking 19817 objects as of 17-Aug-2019
HD Live streaming from Space Station
objects crossing your sky now

FENGYUN 1C DEB

Track FENGYUN 1C DEB now!
10-day predictions


NORAD ID: 31823
Int'l Code: 1999-025CHM
Perigee: 732.1 km
Apogee: 815.8 km
Inclination: 99.5 °
Period: 100.2 minutes
Semi major axis: 7144 km
RCS: 0.0046 m2 (small)
Launch date: May 10, 1999
Source: People's Republic of China (PRC)
Launch site: Taiyaun Space Center, China (TSC)

Note: This is SATELLITE DEBRIS
aabbcc
Your satellite tracking list
Your tracking list is empty




NASA's NSSDC Master Catalog

Two Line Element Set (TLE):
1 31823U 99025CHM 19229.20081758  .00000139  00000-0  62615-4 0  9993
2 31823  99.5302   3.3493 0058523 130.2780 230.3540 14.37488661639006
Source of the keplerian elements: AFSPC